| time (UTC) | temp F | wind direction | speed knots | gust knots | rain 1hr in | rain 24hr in | rain mn in | humidity % | barometer mb |
| 20260507114044 | 73 | 344 | 1.7 | 4.3 | 0.00 | 0.05 | 0.00 | 57 | 1011.2 |
| 20260507113544 | 73 | 69 | 4.3 | 4.3 | 0.00 | 0.05 | 0.00 | 57 | 1011.3 |
| 20260507113044 | 72 | 321 | 3.5 | 3.5 | 0.00 | 0.05 | 0.00 | 56 | 1011.3 |
| 20260507112544 | 72 | 59 | 0.9 | 5.2 | 0.00 | 0.05 | 0.00 | 56 | 1011.3 |
| 20260507112044 | 72 | 29 | 1.7 | 5.2 | 0.00 | 0.05 | 0.00 | 57 | 1011.3 |
| 20260507111544 | 72 | 67 | 2.6 | 7.8 | 0.00 | 0.05 | 0.00 | 59 | 1011.5 |
| 20260507111044 | 72 | 290 | 0.9 | 7.0 | 0.00 | 0.05 | 0.00 | 61 | 1011.5 |
| 20260507110544 | 71 | 71 | 0.0 | 5.2 | 0.00 | 0.05 | 0.00 | 60 | 1011.6 |
| 20260507110047 | 71 | 355 | 3.5 | 7.8 | 0.00 | 0.05 | 0.00 | 60 | 1011.6 |
| 20260507105544 | 71 | 46 | 3.5 | 7.0 | 0.00 | 0.05 | 0.00 | 61 | 1011.6 |
| 20260507105044 | 71 | 350 | 1.7 | 4.3 | 0.00 | 0.05 | 0.00 | 62 | 1011.7 |
| 20260507104544 | 71 | 341 | 3.5 | 8.7 | 0.00 | 0.05 | 0.00 | 61 | 1011.8 |
| 20260507104044 | 71 | 355 | 1.7 | 3.5 | 0.00 | 0.05 | 0.00 | 62 | 1011.8 |
| 20260507103544 | 71 | 330 | 0.9 | 5.2 | 0.00 | 0.05 | 0.00 | 62 | 1011.9 |
| 20260507103044 | 71 | 327 | 3.5 | 9.6 | 0.00 | 0.05 | 0.00 | 63 | 1011.9 |
| 20260507102544 | 71 | 281 | 0.9 | 3.5 | 0.00 | 0.05 | 0.00 | 64 | 1011.9 |
| 20260507102044 | 70 | 301 | 0.0 | 7.8 | 0.00 | 0.05 | 0.00 | 64 | 1012.0 |
| 20260507101544 | 70 | 317 | 7.0 | 7.0 | 0.00 | 0.05 | 0.00 | 64 | 1012.1 |
| 20260507101044 | 70 | 312 | 3.5 | 7.8 | 0.00 | 0.05 | 0.00 | 63 | 1012.1 |
| 20260507100544 | 70 | 315 | 3.5 | 7.8 | 0.00 | 0.05 | 0.00 | 64 | 1012.2 |
| 20260507100044 | 70 | 323 | 2.6 | 7.0 | 0.00 | 0.05 | 0.00 | 65 | 1012.0 |
| 20260507095547 | 70 | 112 | 2.6 | 4.3 | 0.00 | 0.05 | 0.00 | 64 | 1012.0 |
| 20260507095047 | 70 | 319 | 5.2 | 9.6 | 0.00 | 0.05 | 0.00 | 63 | 1012.0 |
| 20260507094544 | 70 | 314 | 2.6 | 4.3 | 0.00 | 0.05 | 0.00 | 64 | 1012.2 |
| 20260507094044 | 69 | 322 | 0.9 | 5.2 | 0.00 | 0.05 | 0.00 | 65 | 1012.2 |
| 20260507093547 | 70 | 22 | 1.7 | 7.0 | 0.00 | 0.05 | 0.00 | 64 | 1012.2 |
| 20260507093044 | 70 | 80 | 7.0 | 7.0 | 0.00 | 0.05 | 0.00 | 63 | 1012.2 |
| 20260507092547 | 70 | 38 | 2.6 | 2.6 | 0.00 | 0.05 | 0.00 | 66 | 1012.2 |
| 20260507092048 | 69 | 40 | 0.0 | 3.5 | 0.00 | 0.05 | 0.00 | 67 | 1012.3 |
| 20260507091544 | 68 | 111 | 1.7 | 3.5 | 0.00 | 0.05 | 0.00 | 67 | 1012.2 |
| 20260507091044 | 68 | 344 | 1.7 | 4.3 | 0.00 | 0.05 | 0.00 | 67 | 1012.2 |
| 20260507090544 | 68 | 349 | 1.7 | 4.3 | 0.00 | 0.05 | 0.00 | 68 | 1012.2 |
| 20260507090044 | 68 | 321 | 0.0 | 5.2 | 0.00 | 0.05 | 0.00 | 68 | 1012.1 |
| 20260507085544 | 67 | 39 | 0.9 | 3.5 | 0.00 | 0.05 | 0.00 | 69 | 1012.1 |
| 20260507085044 | 67 | 37 | 3.5 | 7.8 | 0.00 | 0.05 | 0.00 | 68 | 1012.0 |
| 20260507084544 | 67 | 311 | 3.5 | 7.8 | 0.00 | 0.05 | 0.00 | 69 | 1012.0 |
| 20260507084044 | 67 | 320 | 4.3 | 5.2 | 0.00 | 0.05 | 0.00 | 69 | 1012.1 |
| 20260507083544 | 68 | 329 | 4.3 | 5.2 | 0.00 | 0.05 | 0.00 | 68 | 1012.2 |
| 20260507083044 | 68 | 309 | 0.9 | 2.6 | 0.00 | 0.05 | 0.00 | 69 | 1012.3 |
| 20260507082544 | 68 | 308 | 0.9 | 4.3 | 0.00 | 0.05 | 0.00 | 69 | 1012.2 |
| 20260507082044 | 67 | 304 | 0.0 | 5.2 | 0.00 | 0.05 | 0.00 | 70 | 1012.1 |
| 20260507081544 | 67 | 355 | 0.9 | 5.2 | 0.00 | 0.05 | 0.00 | 68 | 1012.2 |
| 20260507081047 | 68 | 271 | 2.6 | 2.6 | 0.00 | 0.05 | 0.00 | 70 | 1012.2 |
| 20260507080547 | 67 | 190 | 1.7 | 2.6 | 0.00 | 0.05 | 0.00 | 71 | 1012.1 |
| 20260507080044 | 67 | 194 | 0.9 | 5.2 | 0.00 | 0.05 | 0.00 | 71 | 1012.2 |
| 20260507075544 | 66 | 153 | 1.7 | 4.3 | 0.00 | 0.05 | 0.00 | 71 | 1012.2 |
| 20260507075044 | 66 | 152 | 2.6 | 3.5 | 0.00 | 0.05 | 0.00 | 71 | 1012.2 |
| 20260507074544 | 66 | 146 | 0.9 | 6.1 | 0.00 | 0.05 | 0.00 | 70 | 1012.2 |
| 20260507074044 | 66 | 212 | 0.0 | 1.7 | 0.00 | 0.05 | 0.00 | 72 | 1012.2 |
| 20260507073544 | 66 | 213 | 0.0 | 3.5 | 0.00 | 0.05 | 0.00 | 71 | 1012.3 |
| 20260507073044 | 66 | 188 | 1.7 | 2.6 | 0.00 | 0.05 | 0.00 | 72 | 1012.3 |
| 20260507072547 | 66 | 189 | 0.9 | 2.6 | 0.00 | 0.05 | 0.00 | 72 | 1012.4 |
| 20260507072044 | 65 | 190 | 0.0 | 7.0 | 0.00 | 0.05 | 0.00 | 73 | 1012.4 |
| 20260507071547 | 65 | 171 | 0.9 | 6.1 | 0.00 | 0.05 | 0.00 | 72 | 1012.5 |
| 20260507071044 | 65 | 163 | 0.0 | 1.7 | 0.00 | 0.05 | 0.00 | 75 | 1012.5 |
| 20260507070544 | 65 | 163 | 0.9 | 4.3 | 0.00 | 0.05 | 0.00 | 75 | 1012.6 |
| 20260507070044 | 65 | 162 | 0.0 | 5.2 | 0.00 | 0.05 | 0.00 | 76 | 1012.6 |
| 20260507065544 | 64 | 138 | 0.9 | 6.1 | 0.00 | 0.05 | 0.00 | 77 | 1012.6 |
| 20260507065044 | 64 | 174 | 1.7 | 2.6 | 0.00 | 0.05 | 0.00 | 78 | 1012.7 |
| 20260507064547 | 64 | 174 | 1.7 | 7.0 | 0.00 | 0.05 | 0.00 | 77 | 1012.7 |
| 20260507064048 | 64 | 152 | 0.0 | 5.2 | 0.00 | 0.05 | 0.00 | 79 | 1012.6 |
| 20260507063544 | 63 | 158 | 1.7 | 6.1 | 0.00 | 0.05 | 0.00 | 78 | 1012.4 |
| 20260507063044 | 63 | 150 | 0.0 | 4.3 | 0.00 | 0.05 | 0.00 | 79 | 1012.3 |
| 20260507062544 | 63 | 162 | 3.5 | 5.2 | 0.00 | 0.05 | 0.00 | 80 | 1012.3 |
| 20260507062044 | 63 | 150 | 2.6 | 7.0 | 0.00 | 0.05 | 0.00 | 80 | 1012.2 |
| 20260507061544 | 62 | 136 | 0.0 | 3.5 | 0.00 | 0.05 | 0.00 | 81 | 1012.2 |
| 20260507061044 | 62 | 140 | 1.7 | 4.3 | 0.00 | 0.05 | 0.00 | 81 | 1012.1 |
| 20260507060544 | 61 | 128 | 1.7 | 3.5 | 0.00 | 0.05 | 0.00 | 82 | 1012.1 |
| 20260507060047 | 61 | 117 | 3.5 | 3.5 | 0.00 | 0.05 | 0.00 | 82 | 1012.1 |
| 20260507055544 | 61 | 140 | 1.7 | 2.6 | 0.00 | 0.04 | 0.00 | 83 | 1012.2 |
| 20260507055047 | 60 | 140 | 0.0 | 3.5 | 0.00 | 0.04 | 0.00 | 83 | 1012.1 |
| 20260507054544 | 60 | 141 | 0.9 | 4.3 | 0.00 | 0.04 | 0.00 | 82 | 1012.0 |
| 20260507054044 | 60 | 116 | 0.9 | 2.6 | 0.00 | 0.04 | 0.00 | 82 | 1012.0 |
| 20260507053544 | 60 | 115 | 0.9 | 3.5 | 0.00 | 0.04 | 0.00 | 82 | 1012.1 |
| 20260507053044 | 60 | 78 | 2.6 | 3.5 | 0.00 | 0.04 | 0.00 | 83 | 1012.1 |
| 20260507052544 | 60 | 78 | 0.0 | 2.6 | 0.00 | 0.04 | 0.00 | 84 | 1012.0 |
| 20260507052047 | 60 | 78 | 1.7 | 3.5 | 0.00 | 0.04 | 0.00 | 84 | 1012.0 |
| 20260507051544 | 60 | 77 | 1.7 | 4.3 | 0.00 | 0.04 | 0.00 | 84 | 1012.0 |
| 20260507051044 | 59 | 75 | 0.9 | 2.6 | 0.00 | 0.04 | 0.00 | 84 | 1012.0 |
| 20260507050544 | 59 | 75 | 2.6 | 3.5 | 0.00 | 0.04 | 0.00 | 84 | 1012.0 |
| 20260507050047 | 59 | 75 | 2.6 | 2.6 | 0.00 | 0.04 | 0.00 | 85 | 1012.0 |
| 20260507045544 | 59 | 74 | 1.7 | 3.5 | 0.00 | 0.04 | 0.00 | 85 | 1011.9 |
| 20260507045044 | 58 | 74 | 0.9 | 1.7 | 0.00 | 0.04 | 0.00 | 85 | 1011.9 |
| 20260507044544 | 58 | 74 | 1.7 | 2.6 | 0.00 | 0.05 | 0.00 | 85 | 1011.9 |
| 20260507044044 | 58 | 74 | 0.9 | 1.7 | 0.00 | 0.05 | 0.00 | 85 | 1011.9 |
| 20260507043544 | 58 | 74 | 0.9 | 2.6 | 0.00 | 0.05 | 0.00 | 85 | 1011.9 |
| 20260507043044 | 58 | 74 | 0.9 | 2.6 | 0.00 | 0.05 | 0.00 | 85 | 1011.8 |
| 20260507042547 | 58 | 74 | 1.7 | 2.6 | 0.00 | 0.05 | 0.00 | 85 | 1011.8 |
| 20260507042047 | 58 | 74 | 0.9 | 2.6 | 0.00 | 0.05 | 0.00 | 85 | 1011.8 |
| 20260507041544 | 58 | 74 | 2.6 | 4.3 | 0.00 | 0.05 | 0.00 | 85 | 1011.8 |
| 20260507041044 | 58 | 67 | 3.5 | 4.3 | 0.00 | 0.05 | 0.00 | 85 | 1011.7 |
| 20260507040544 | 58 | 65 | 1.7 | 2.6 | 0.00 | 0.05 | 0.00 | 85 | 1011.7 |
| 20260507040044 | 58 | 65 | 2.6 | 3.5 | 0.00 | 0.05 | 0.00 | 85 | 1011.7 |
| 20260507035544 | 59 | 65 | 0.9 | 3.5 | 0.00 | 0.05 | 0.00 | 85 | 1011.6 |
| 20260507035044 | 59 | 65 | 1.7 | 4.3 | 0.00 | 0.05 | 0.00 | 85 | 1011.7 |
| 20260507034544 | 59 | 63 | 2.6 | 3.5 | 0.00 | 0.05 | 0.00 | 84 | 1011.7 |
| 20260507034044 | 59 | 60 | 1.7 | 1.7 | 0.00 | 0.05 | 0.00 | 84 | 1011.8 |
| 20260507033544 | 59 | 60 | 1.7 | 3.5 | 0.00 | 0.05 | 0.00 | 84 | 1011.8 |
| 20260507033044 | 59 | 60 | 0.0 | 2.6 | 0.00 | 0.05 | 0.00 | 85 | 1011.9 |
| 20260507032547 | 58 | 60 | 0.9 | 3.5 | 0.00 | 0.05 | 0.00 | 85 | 1011.8 |
| 20260507032047 | 58 | 36 | 3.5 | 3.5 | 0.00 | 0.05 | 0.00 | 85 | 1011.8 |
| 20260507031544 | 58 | 346 | 1.7 | 2.6 | 0.00 | 0.05 | 0.00 | 85 | 1011.9 |
| 20260507031044 | 58 | 346 | 0.0 | 0.9 | 0.00 | 0.05 | 0.00 | 85 | 1011.9 |
| 20260507030544 | 58 | 346 | 0.0 | 1.7 | 0.00 | 0.05 | 0.00 | 86 | 1011.8 |
| 20260507030044 | 58 | 346 | 0.9 | 1.7 | 0.00 | 0.05 | 0.00 | 86 | 1011.8 |
| 20260507025544 | 58 | 346 | 0.9 | 1.7 | 0.00 | 0.05 | 0.00 | 86 | 1011.8 |
| 20260507025044 | 58 | 346 | 0.9 | 2.6 | 0.00 | 0.05 | 0.00 | 86 | 1011.8 |
| 20260507024547 | 58 | 346 | 1.7 | 2.6 | 0.00 | 0.05 | 0.00 | 86 | 1011.8 |
| 20260507024044 | 58 | 346 | 0.9 | 4.3 | 0.00 | 0.05 | 0.00 | 86 | 1011.7 |
| 20260507023544 | 58 | 345 | 3.5 | 3.5 | 0.00 | 0.05 | 0.00 | 87 | 1011.8 |
| 20260507023044 | 58 | 345 | 1.7 | 4.3 | 0.00 | 0.05 | 0.00 | 87 | 1011.8 |
| 20260507022544 | 58 | 344 | 1.7 | 3.5 | 0.00 | 0.05 | 0.00 | 87 | 1011.8 |
| 20260507022047 | 58 | 340 | 3.5 | 4.3 | 0.00 | 0.05 | 0.00 | 88 | 1011.8 |
| 20260507021545 | 58 | 331 | 2.6 | 4.3 | 0.00 | 0.05 | 0.00 | 88 | 1011.8 |
| 20260507021048 | 58 | 341 | 2.6 | 4.3 | 0.00 | 0.05 | 0.00 | 88 | 1011.8 |
| 20260507020544 | 58 | 340 | 4.3 | 4.3 | 0.00 | 0.05 | 0.00 | 88 | 1011.8 |
| 20260507020044 | 58 | 335 | 3.5 | 5.2 | 0.00 | 0.05 | 0.00 | 88 | 1011.8 |
| 20260507015544 | 58 | 332 | 2.6 | 3.5 | 0.00 | 0.05 | 0.00 | 88 | 1011.8 |
| 20260507015047 | 58 | 331 | 0.9 | 2.6 | 0.00 | 0.05 | 0.00 | 88 | 1011.8 |
| 20260507014544 | 58 | 331 | 0.0 | 2.6 | 0.00 | 0.05 | 0.00 | 88 | 1011.7 |
| 20260507014044 | 58 | 345 | 1.7 | 2.6 | 0.00 | 0.05 | 0.00 | 88 | 1011.8 |
| 20260507013547 | 58 | 104 | 0.9 | 1.7 | 0.00 | 0.05 | 0.00 | 88 | 1011.7 |
| 20260507013047 | 58 | 105 | 0.0 | 2.6 | 0.00 | 0.05 | 0.00 | 88 | 1011.7 |
| 20260507012544 | 58 | 105 | 0.0 | 1.7 | 0.00 | 0.05 | 0.00 | 89 | 1011.7 |
| 20260507012044 | 58 | 105 | 0.0 | 2.6 | 0.00 | 0.05 | 0.00 | 89 | 1011.7 |
| 20260507011544 | 57 | 105 | 0.9 | 1.7 | 0.00 | 0.05 | 0.00 | 89 | 1011.7 |
| 20260507011044 | 57 | 108 | 0.0 | 1.7 | 0.00 | 0.05 | 0.00 | 90 | 1011.6 |
| 20260507010547 | 57 | 108 | 0.0 | 2.6 | 0.00 | 0.05 | 0.00 | 90 | 1011.5 |
| 20260507010044 | 57 | 108 | 0.9 | 3.5 | 0.00 | 0.05 | 0.00 | 90 | 1011.6 |
| 20260507005544 | 57 | 108 | 2.6 | 5.2 | 0.00 | 0.05 | 0.00 | 90 | 1011.7 |
| 20260507005047 | 57 | 108 | 0.9 | 2.6 | 0.00 | 0.05 | 0.00 | 90 | 1011.7 |
| 20260507004544 | 57 | 107 | 1.7 | 3.5 | 0.00 | 0.05 | 0.00 | 91 | 1011.7 |
| 20260507004044 | 57 | 103 | 0.9 | 3.5 | 0.00 | 0.05 | 0.00 | 91 | 1011.7 |
| 20260507003547 | 57 | 91 | 1.7 | 3.5 | 0.00 | 0.05 | 0.00 | 91 | 1011.8 |
| 20260507003044 | 57 | 111 | 3.5 | 5.2 | 0.00 | 0.05 | 0.00 | 90 | 1011.8 |
| 20260507002544 | 57 | 87 | 0.0 | 5.2 | 0.00 | 0.05 | 0.00 | 91 | 1011.9 |
| 20260507002044 | 57 | 103 | 0.9 | 6.1 | 0.00 | 0.05 | 0.00 | 91 | 1011.9 |
| 20260507001544 | 57 | 88 | 2.6 | 7.0 | 0.00 | 0.05 | 0.00 | 91 | 1011.8 |
| 20260507001044 | 57 | 138 | 2.6 | 8.7 | 0.00 | 0.05 | 0.00 | 91 | 1011.8 |
| 20260507000544 | 57 | 144 | 4.3 | 6.1 | 0.00 | 0.05 | 0.00 | 91 | 1011.8 |
| 20260507000044 | 57 | 148 | 3.5 | 8.7 | 0.01 | 0.05 | 0.00 | 91 | 1011.9 |
| 20260506235544 | 57 | 81 | 6.1 | 8.7 | 0.01 | 0.05 | 0.00 | 91 | 1011.9 |
| 20260506235044 | 58 | 135 | 2.6 | 7.8 | 0.02 | 0.05 | 0.00 | 91 | 1011.9 |
| 20260506234544 | 58 | 95 | 5.2 | 8.7 | 0.02 | 0.05 | 0.00 | 91 | 1012.0 |
| 20260506234044 | 58 | 113 | 2.6 | 7.0 | 0.03 | 0.05 | 0.00 | 91 | 1012.0 |
| 20260506233544 | 58 | 133 | 4.3 | 7.8 | 0.03 | 0.05 | 0.00 | 91 | 1012.1 |
| 20260506233044 | 58 | 154 | 3.5 | 9.6 | 0.03 | 0.05 | 0.00 | 90 | 1012.2 |
| 20260506232544 | 58 | 213 | 5.2 | 10.4 | 0.03 | 0.05 | 0.00 | 90 | 1012.2 |
| 20260506232044 | 58 | 146 | 8.7 | 10.4 | 0.03 | 0.05 | 0.00 | 90 | 1012.2 |
| 20260506231544 | 58 | 140 | 7.8 | 12.2 | 0.03 | 0.04 | 0.00 | 90 | 1012.1 |
| 20260506231044 | 58 | 154 | 7.0 | 12.2 | 0.03 | 0.04 | 0.00 | 90 | 1012.1 |
| 20260506230544 | 58 | 146 | 8.7 | 12.2 | 0.03 | 0.04 | 0.00 | 90 | 1012.1 |
| 20260506230044 | 59 | 157 | 7.8 | 11.3 | 0.02 | 0.03 | 0.00 | 90 | 1012.1 |
| 20260506225544 | 59 | 160 | 7.0 | 13.9 | 0.02 | 0.03 | 0.00 | 90 | 1012.1 |
| 20260506225044 | 59 | 182 | 7.0 | 9.6 | 0.01 | 0.03 | 0.00 | 89 | 1012.1 |
| 20260506224547 | 59 | 154 | 5.2 | 12.2 | 0.01 | 0.03 | 0.00 | 88 | 1012.1 |
| 20260506224044 | 59 | 166 | 8.7 | 13.9 | 0.00 | 0.02 | 0.00 | 87 | 1012.1 |
| 20260506223544 | 59 | 176 | 7.8 | 11.3 | 0.00 | 0.02 | 0.00 | 86 | 1012.1 |
| 20260506223047 | 60 | 146 | 9.6 | 8.7 | 0.00 | 0.01 | 0.00 | 86 | 1012.1 |
| 20260506222547 | 59 | 133 | 7.0 | 9.6 | 0.00 | 0.01 | 0.00 | 86 | 1012.0 |
| 20260506222044 | 60 | 169 | 1.7 | 8.7 | 0.00 | 0.01 | 0.00 | 85 | 1011.9 |
| 20260506221547 | 60 | 161 | 6.1 | 8.7 | 0.00 | 0.01 | 0.00 | 85 | 1011.9 |
| 20260506221044 | 60 | 151 | 5.2 | 7.8 | 0.00 | 0.01 | 0.00 | 85 | 1011.9 |
| 20260506220544 | 60 | 144 | 5.2 | 9.6 | 0.00 | 0.01 | 0.00 | 84 | 1012.0 |
| 20260506220044 | 60 | 155 | 5.2 | 9.6 | 0.00 | 0.01 | 0.00 | 84 | 1011.9 |
| 20260506215544 | 60 | 161 | 4.3 | 8.7 | 0.00 | 0.01 | 0.00 | 84 | 1011.9 |
| 20260506215047 | 60 | 153 | 2.6 | 9.6 | 0.00 | 0.01 | 0.00 | 84 | 1012.0 |
| 20260506214547 | 60 | 163 | 4.3 | 8.7 | 0.00 | 0.01 | 0.00 | 85 | 1012.1 |
| 20260506214044 | 60 | 147 | 5.2 | 8.7 | 0.00 | 0.01 | 0.00 | 85 | 1012.1 |
| 20260506213547 | 60 | 142 | 5.2 | 9.6 | 0.00 | 0.01 | 0.00 | 85 | 1012.2 |
| 20260506213044 | 60 | 161 | 4.3 | 7.8 | 0.00 | 0.01 | 0.00 | 85 | 1012.3 |
| 20260506212544 | 60 | 151 | 5.2 | 7.8 | 0.00 | 0.01 | 0.00 | 85 | 1012.2 |
| 20260506212044 | 60 | 137 | 6.1 | 8.7 | 0.00 | 0.01 | 0.00 | 85 | 1012.2 |
| 20260506211544 | 60 | 155 | 7.0 | 7.8 | 0.00 | 0.01 | 0.00 | 85 | 1012.1 |
| 20260506211047 | 60 | 140 | 7.8 | 7.8 | 0.00 | 0.01 | 0.00 | 85 | 1012.2 |
| 20260506210547 | 60 | 155 | 2.6 | 7.8 | 0.00 | 0.01 | 0.00 | 86 | 1012.3 |
| 20260506210044 | 60 | 153 | 2.6 | 7.0 | 0.00 | 0.01 | 0.00 | 86 | 1012.3 |
| 20260506205547 | 60 | 155 | 5.2 | 6.1 | 0.00 | 0.01 | 0.00 | 86 | 1012.3 |
| 20260506205044 | 60 | 158 | 4.3 | 5.2 | 0.00 | 0.01 | 0.00 | 86 | 1012.2 |
| 20260506204544 | 60 | 153 | 2.6 | 6.1 | 0.00 | 0.01 | 0.00 | 86 | 1012.3 |
| 20260506204044 | 60 | 158 | 1.7 | 5.2 | 0.00 | 0.01 | 0.00 | 86 | 1012.2 |
| 20260506203544 | 60 | 145 | 5.2 | 7.0 | 0.00 | 0.01 | 0.00 | 86 | 1012.2 |
| 20260506203044 | 60 | 154 | 5.2 | 6.1 | 0.00 | 0.01 | 0.00 | 85 | 1012.2 |
| 20260506202544 | 60 | 163 | 4.3 | 7.0 | 0.00 | 0.01 | 0.00 | 85 | 1012.3 |
| 20260506202044 | 61 | 137 | 3.5 | 7.8 | 0.00 | 0.01 | 0.00 | 85 | 1012.3 |
| 20260506201544 | 60 | 167 | 3.5 | 7.0 | 0.00 | 0.01 | 0.00 | 85 | 1012.3 |
| 20260506201044 | 61 | 163 | 4.3 | 7.8 | 0.00 | 0.01 | 0.00 | 85 | 1012.3 |
| 20260506200547 | 61 | 159 | 6.1 | 6.1 | 0.00 | 0.01 | 0.00 | 85 | 1012.2 |
| 20260506200044 | 61 | 146 | 3.5 | 6.1 | 0.00 | 0.01 | 0.00 | 84 | 1012.2 |
| 20260506195544 | 61 | 138 | 3.5 | 7.0 | 0.00 | 0.01 | 0.00 | 84 | 1012.2 |
| 20260506195044 | 61 | 150 | 3.5 | 7.0 | 0.00 | 0.00 | 0.00 | 83 | 1012.2 |
| 20260506194544 | 61 | 142 | 5.2 | 7.8 | 0.00 | 0.00 | 0.00 | 82 | 1012.3 |
| 20260506194044 | 62 | 146 | 2.6 | 7.8 | 0.00 | 0.00 | 0.00 | 81 | 1012.3 |
| 20260506193547 | 62 | 145 | 3.5 | 7.0 | 0.00 | 0.00 | 0.00 | 81 | 1012.3 |
| 20260506193047 | 62 | 143 | 3.5 | 7.8 | 0.00 | 0.00 | 0.00 | 80 | 1012.2 |
| 20260506192544 | 62 | 128 | 6.1 | 8.7 | 0.00 | 0.00 | 0.00 | 80 | 1012.2 |
| 20260506192044 | 62 | 148 | 5.2 | 7.0 | 0.00 | 0.00 | 0.00 | 80 | 1012.2 |
| 20260506191547 | 62 | 140 | 6.1 | 8.7 | 0.00 | 0.00 | 0.00 | 80 | 1012.1 |
| 20260506191047 | 62 | 147 | 7.0 | 9.6 | 0.00 | 0.00 | 0.00 | 80 | 1012.0 |
| 20260506190544 | 62 | 161 | 4.3 | 9.6 | 0.00 | 0.00 | 0.00 | 79 | 1011.9 |
| 20260506190044 | 63 | 148 | 7.8 | 9.6 | 0.00 | 0.00 | 0.00 | 79 | 1011.9 |
| 20260506185544 | 63 | 157 | 2.6 | 8.7 | 0.00 | 0.00 | 0.00 | 79 | 1011.8 |
| 20260506185044 | 63 | 140 | 6.1 | 9.6 | 0.00 | 0.00 | 0.00 | 78 | 1011.7 |
| 20260506184544 | 63 | 164 | 5.2 | 7.8 | 0.00 | 0.00 | 0.00 | 77 | 1011.7 |
| 20260506184044 | 63 | 160 | 5.2 | 8.7 | 0.00 | 0.00 | 0.00 | 76 | 1011.6 |
| 20260506183544 | 63 | 165 | 4.3 | 10.4 | 0.00 | 0.00 | 0.00 | 75 | 1011.6 |
| 20260506183044 | 63 | 151 | 7.0 | 9.6 | 0.00 | 0.00 | 0.00 | 74 | 1011.6 |
| 20260506182544 | 63 | 163 | 4.3 | 8.7 | 0.00 | 0.00 | 0.00 | 74 | 1011.6 |
| 20260506182044 | 63 | 144 | 7.0 | 9.6 | 0.00 | 0.00 | 0.00 | 74 | 1011.6 |
| 20260506181544 | 63 | 174 | 5.2 | 8.7 | 0.00 | 0.00 | 0.00 | 74 | 1011.6 |
| 20260506181044 | 63 | 138 | 6.1 | 8.7 | 0.00 | 0.00 | 0.00 | 74 | 1011.6 |
| 20260506180544 | 63 | 154 | 6.1 | 10.4 | 0.00 | 0.00 | 0.00 | 75 | 1011.6 |
| 20260506180044 | 64 | 163 | 5.2 | 8.7 | 0.00 | 0.00 | 0.00 | 75 | 1011.5 |
| 20260506175544 | 64 | 139 | 6.1 | 9.6 | 0.00 | 0.00 | 0.00 | 75 | 1011.5 |
| 20260506175044 | 64 | 159 | 6.1 | 7.8 | 0.00 | 0.00 | 0.00 | 75 | 1011.5 |
| 20260506174544 | 64 | 156 | 5.2 | 8.7 | 0.00 | 0.00 | 0.00 | 74 | 1011.6 |
| 20260506174044 | 64 | 169 | 3.5 | 7.8 | 0.00 | 0.00 | 0.00 | 75 | 1011.6 |
| 20260506173544 | 64 | 155 | 6.1 | 8.7 | 0.00 | 0.00 | 0.00 | 74 | 1011.5 |
| 20260506173044 | 64 | 153 | 3.5 | 7.0 | 0.00 | 0.00 | 0.00 | 74 | 1011.5 |
| 20260506172544 | 64 | 168 | 4.3 | 7.8 | 0.00 | 0.00 | 0.00 | 74 | 1011.5 |
| 20260506172047 | 64 | 156 | 4.3 | 9.6 | 0.00 | 0.00 | 0.00 | 74 | 1011.5 |
| 20260506171544 | 64 | 185 | 3.5 | 9.6 | 0.00 | 0.00 | 0.00 | 74 | 1011.5 |
| 20260506171044 | 64 | 156 | 5.2 | 9.6 | 0.00 | 0.00 | 0.00 | 74 | 1011.5 |
| 20260506170544 | 64 | 163 | 9.6 | 11.3 | 0.00 | 0.00 | 0.00 | 74 | 1011.6 |
| 20260506170044 | 64 | 154 | 9.6 | 9.6 | 0.00 | 0.00 | 0.00 | 73 | 1011.6 |
| 20260506165547 | 64 | 187 | 5.2 | 10.4 | 0.00 | 0.00 | 0.00 | 72 | 1011.6 |
| 20260506165044 | 64 | 152 | 7.8 | 10.4 | 0.00 | 0.00 | 0.00 | 72 | 1011.7 |
| 20260506164544 | 65 | 163 | 6.1 | 10.4 | 0.00 | 0.00 | 0.00 | 72 | 1011.7 |
| 20260506164047 | 64 | 157 | 4.3 | 11.3 | 0.00 | 0.00 | 0.00 | 73 | 1011.7 |
| 20260506163547 | 65 | 162 | 5.2 | 12.2 | 0.00 | 0.00 | 0.00 | 72 | 1011.7 |
| 20260506163044 | 65 | 165 | 5.2 | 11.3 | 0.00 | 0.00 | 0.00 | 73 | 1011.7 |
| 20260506162544 | 65 | 184 | 4.3 | 10.4 | 0.00 | 0.00 | 0.00 | 73 | 1011.7 |
| 20260506162044 | 65 | 148 | 5.2 | 9.6 | 0.00 | 0.00 | 0.00 | 73 | 1011.8 |
| 20260506161544 | 65 | 160 | 6.1 | 7.8 | 0.00 | 0.00 | 0.00 | 73 | 1011.8 |
| 20260506161044 | 65 | 150 | 7.0 | 11.3 | 0.00 | 0.00 | 0.00 | 73 | 1011.7 |
| 20260506160544 | 65 | 140 | 9.6 | 11.3 | 0.00 | 0.00 | 0.00 | 72 | 1011.7 |
| 20260506160044 | 65 | 163 | 8.7 | 10.4 | 0.00 | 0.00 | 0.00 | 73 | 1011.7 |
| 20260506155544 | 65 | 150 | 5.2 | 13.0 | 0.00 | 0.00 | 0.00 | 74 | 1011.5 |
| 20260506155044 | 65 | 174 | 7.0 | 13.0 | 0.00 | 0.00 | 0.00 | 74 | 1011.6 |
| 20260506154544 | 65 | 186 | 5.2 | 9.6 | 0.00 | 0.00 | 0.00 | 74 | 1011.8 |
| 20260506154044 | 65 | 162 | 6.1 | 8.7 | 0.00 | 0.00 | 0.00 | 74 | 1011.8 |
| 20260506153547 | 65 | 159 | 5.2 | 8.7 | 0.00 | 0.00 | 0.00 | 74 | 1011.9 |
| 20260506153044 | 65 | 193 | 0.9 | 7.8 | 0.00 | 0.00 | 0.00 | 74 | 1011.8 |
| 20260506152544 | 65 | 165 | 4.3 | 10.4 | 0.00 | 0.00 | 0.00 | 73 | 1011.8 |
| 20260506152044 | 65 | 161 | 5.2 | 6.1 | 0.00 | 0.00 | 0.00 | 73 | 1011.8 |
| 20260506151547 | 65 | 157 | 4.3 | 7.8 | 0.00 | 0.00 | 0.00 | 73 | 1011.8 |
| 20260506151047 | 65 | 172 | 4.3 | 8.7 | 0.00 | 0.00 | 0.00 | 73 | 1011.7 |
| 20260506150544 | 65 | 177 | 3.5 | 9.6 | 0.00 | 0.00 | 0.00 | 73 | 1011.7 |
| 20260506150044 | 65 | 164 | 4.3 | 10.4 | 0.00 | 0.00 | 0.00 | 73 | 1011.7 |
| 20260506145544 | 65 | 157 | 7.8 | 13.9 | 0.00 | 0.00 | 0.00 | 72 | 1011.7 |
| 20260506145044 | 65 | 152 | 6.1 | 13.0 | 0.00 | 0.00 | 0.00 | 72 | 1011.8 |
| 20260506144544 | 65 | 158 | 6.1 | 9.6 | 0.00 | 0.00 | 0.00 | 73 | 1011.8 |
| 20260506144044 | 65 | 238 | 5.2 | 11.3 | 0.00 | 0.00 | 0.00 | 72 | 1011.8 |
| 20260506143544 | 65 | 150 | 10.4 | 12.2 | 0.00 | 0.00 | 0.00 | 71 | 1011.8 |
| 20260506143044 | 66 | 167 | 7.0 | 11.3 | 0.00 | 0.00 | 0.00 | 72 | 1011.7 |
| 20260506142544 | 66 | 170 | 3.5 | 13.9 | 0.00 | 0.00 | 0.00 | 72 | 1011.7 |
| 20260506142044 | 66 | 153 | 8.7 | 13.9 | 0.00 | 0.00 | 0.00 | 72 | 1011.8 |
| 20260506141547 | 66 | 157 | 9.6 | 13.0 | 0.00 | 0.00 | 0.00 | 71 | 1011.9 |
| 20260506141044 | 66 | 155 | 11.3 | 13.9 | 0.00 | 0.00 | 0.00 | 71 | 1011.8 |
| 20260506140544 | 66 | 186 | 10.4 | 13.0 | 0.00 | 0.00 | 0.00 | 71 | 1011.9 |
| 20260506140044 | 66 | 144 | 10.4 | 13.9 | 0.00 | 0.00 | 0.00 | 72 | 1011.8 |
| 20260506135544 | 66 | 153 | 10.4 | 13.9 | 0.00 | 0.00 | 0.00 | 71 | 1011.8 |
| 20260506135044 | 67 | 167 | 8.7 | 11.3 | 0.00 | 0.00 | 0.00 | 71 | 1011.9 |
| 20260506134547 | 66 | 145 | 9.6 | 13.0 | 0.00 | 0.00 | 0.00 | 70 | 1011.9 |
| 20260506134044 | 67 | 170 | 9.6 | 13.0 | 0.00 | 0.00 | 0.00 | 69 | 1012.0 |
| 20260506133544 | 67 | 166 | 4.3 | 10.4 | 0.00 | 0.00 | 0.00 | 70 | 1012.0 |
| 20260506133044 | 67 | 146 | 5.2 | 11.3 | 0.00 | 0.00 | 0.00 | 69 | 1012.1 |
| 20260506132544 | 66 | 178 | 4.3 | 13.0 | 0.00 | 0.00 | 0.00 | 68 | 1012.2 |
| 20260506132044 | 67 | 155 | 9.6 | 13.0 | 0.00 | 0.00 | 0.00 | 68 | 1012.1 |
| 20260506131544 | 66 | 144 | 9.6 | 10.4 | 0.00 | 0.00 | 0.00 | 68 | 1012.3 |
| 20260506131044 | 67 | 174 | 5.2 | 10.4 | 0.00 | 0.00 | 0.00 | 68 | 1012.3 |
| 20260506130544 | 67 | 167 | 7.8 | 12.2 | 0.00 | 0.00 | 0.00 | 68 | 1012.2 |
| 20260506130044 | 67 | 163 | 6.1 | 8.7 | 0.00 | 0.00 | 0.00 | 68 | 1012.2 |
| 20260506125544 | 67 | 164 | 3.5 | 14.8 | 0.00 | 0.00 | 0.00 | 67 | 1012.2 |
| 20260506125044 | 67 | 153 | 7.8 | 14.8 | 0.00 | 0.00 | 0.00 | 66 | 1012.1 |
| 20260506124544 | 67 | 159 | 7.0 | 13.0 | 0.00 | 0.00 | 0.00 | 66 | 1012.1 |
| 20260506124044 | 67 | 149 | 11.3 | 14.8 | 0.00 | 0.00 | 0.00 | 67 | 1012.1 |
| 20260506123544 | 67 | 187 | 4.3 | 11.3 | 0.00 | 0.00 | 0.00 | 67 | 1012.1 |
| 20260506123044 | 67 | 167 | 3.5 | 12.2 | 0.00 | 0.00 | 0.00 | 67 | 1012.1 |
| 20260506122544 | 68 | 215 | 4.3 | 13.9 | 0.00 | 0.00 | 0.00 | 67 | 1012.1 |
| 20260506122044 | 68 | 185 | 2.6 | 11.3 | 0.00 | 0.00 | 0.00 | 64 | 1012.1 |
| 20260506121544 | 68 | 190 | 2.6 | 14.8 | 0.00 | 0.00 | 0.00 | 63 | 1012.0 |
| 20260506121044 | 68 | 262 | 6.1 | 14.8 | 0.00 | 0.00 | 0.00 | 61 | 1012.0 |
| 20260506120544 | 68 | 141 | 4.3 | 19.1 | 0.00 | 0.00 | 0.00 | 65 | 1012.1 |
| 20260506120044 | 68 | 214 | 4.3 | 16.5 | 0.00 | 0.00 | 0.00 | 64 | 1012.0 |
| 20260506115544 | 68 | 198 | 7.0 | 12.2 | 0.00 | 0.00 | 0.00 | 63 | 1012.0 |
| 20260506115044 | 68 | 197 | 2.6 | 15.6 | 0.00 | 0.00 | 0.00 | 63 | 1012.1 |
| 20260506114547 | 69 | 171 | 5.2 | 16.5 | 0.00 | 0.00 | 0.00 | 61 | 1012.1 |